When you browse on this site, cookies collect data to enhance your experience and personalize the content and advertising you see.
Visit our Privacy Policy to learn more. By continuing to use the site, you agree to this use of cookies and data.
  • In Switzerland
  • List of Countries
  • For 7 days
  • Water Temperature
  • Weather Map
  • Weather Widgets
  • user-avatar
    Login

    Hourly Weather Toporovo

    Today, 6 April, Monday

    Time Temperature Precipitation Wind Pressure Humidity
    00:00 -2°C° 0 mm 2 mps 752 mmHg 66%
    01:00 -2°C° 0 mm 2 mps 752 mmHg 67%
    02:00 0°C° 0 mm 1 mps 752 mmHg 72%
    03:00 0°C° 0 mm 1 mps 752 mmHg 69%
    04:00 0°C° 0 mm 1 mps 752 mmHg 66%
    05:00 0°C° 0 mm 1 mps 753 mmHg 62%
    06:00 +1°C° 0 mm 1 mps 753 mmHg 58%
    07:00 +2°C° 0 mm 1 mps 753 mmHg 53%
    08:00 +3°C° 0 mm 2 mps 754 mmHg 47%
    09:00 +3°C° 0 mm 2 mps 754 mmHg 53%
    10:00 +4°C° 0 mm 2 mps 753 mmHg 59%
    11:00 +4°C° 0 mm 3 mps 753 mmHg 65%
    12:00 +4°C° 0 mm 3 mps 753 mmHg 68%
    13:00 +4°C° 0 mm 3 mps 753 mmHg 72%
    14:00 +4°C° 0 mm 3 mps 753 mmHg 75%
    15:00 +5°C° 0 mm 3 mps 753 mmHg 76%
    16:00 +5°C° 0 mm 3 mps 753 mmHg 77%
    17:00 +6°C° 0 mm 2 mps 753 mmHg 78%
    18:00 +5°C° 0 mm 2 mps 753 mmHg 82%
    19:00 +4°C° 0 mm 2 mps 753 mmHg 86%
    20:00 +4°C° 0 mm 1 mps 753 mmHg 90%
    21:00 +4°C° 0 mm 1 mps 754 mmHg 91%
    22:00 +3°C° 0 mm 1 mps 754 mmHg 92%
    23:00 +3°C° 0 mm 1 mps 754 mmHg 93%

    Tomorrow, 7 April, Tuesday

    Time Temperature Precipitation Wind Pressure Humidity
    00:00 +2°C° 0 mm 0 mps 754 mmHg 93%
    01:00 +1°C° 0 mm 0 mps 754 mmHg 93%
    02:00 +1°C° 0 mm 0 mps 754 mmHg 93%
    03:00 +1°C° 0 mm 0 mps 754 mmHg 93%
    04:00 +2°C° 0 mm 1 mps 754 mmHg 93%
    05:00 +2°C° 0 mm 1 mps 755 mmHg 93%
    06:00 +3°C° 0 mm 1 mps 754 mmHg 89%
    07:00 +4°C° 0 mm 2 mps 754 mmHg 85%
    08:00 +5°C° 0 mm 2 mps 754 mmHg 81%
    09:00 +7°C° 0 mm 3 mps 754 mmHg 72%
    10:00 +9°C° 0 mm 3 mps 754 mmHg 64%
    11:00 +11°C° 0 mm 3 mps 754 mmHg 55%
    12:00 +11°C° 0 mm 4 mps 753 mmHg 52%
    13:00 +12°C° 0 mm 4 mps 753 mmHg 50%
    14:00 +13°C° 0 mm 5 mps 752 mmHg 47%
    15:00 +12°C° 0 mm 4 mps 751 mmHg 48%
    16:00 +12°C° 0 mm 4 mps 751 mmHg 49%
    17:00 +12°C° 0 mm 4 mps 750 mmHg 50%
    18:00 +11°C° 0 mm 4 mps 750 mmHg 54%
    19:00 +8°C° 0 mm 4 mps 749 mmHg 58%
    20:00 +7°C° 0 mm 4 mps 748 mmHg 62%
    21:00 +7°C° 0 mm 4 mps 748 mmHg 62%
    22:00 +7°C° 0 mm 4 mps 747 mmHg 62%
    23:00 +6°C° 0 mm 4 mps 747 mmHg 62%

    Day after tomorrow, 8 April, Wednesday

    Time Temperature Precipitation Wind Pressure Humidity
    00:00 +6°C° 0 mm 4 mps 746 mmHg 66%
    01:00 +6°C° 0 mm 4 mps 746 mmHg 70%
    02:00 +6°C° 0 mm 4 mps 745 mmHg 74%
    03:00 +6°C° 0 mm 4 mps 745 mmHg 77%
    04:00 +6°C° 0 mm 4 mps 745 mmHg 79%
    05:00 +6°C° 0 mm 4 mps 745 mmHg 82%
    06:00 +6°C° 0 mm 5 mps 745 mmHg 81%
    07:00 +6°C° 0 mm 5 mps 745 mmHg 80%
    08:00 +6°C° 0 mm 5 mps 745 mmHg 78%
    09:00 +7°C° 0 mm 5 mps 745 mmHg 75%
    10:00 +7°C° 0 mm 5 mps 746 mmHg 72%
    11:00 +8°C° 0 mm 5 mps 746 mmHg 69%
    12:00 +9°C° 0 mm 5 mps 746 mmHg 64%
    13:00 +11°C° 0 mm 4 mps 746 mmHg 58%
    14:00 +12°C° 0 mm 4 mps 746 mmHg 53%
    15:00 +11°C° 0 mm 4 mps 746 mmHg 52%
    16:00 +11°C° 0 mm 4 mps 746 mmHg 51%
    17:00 +11°C° 0 mm 3 mps 746 mmHg 50%
    18:00 +9°C° 0 mm 3 mps 746 mmHg 56%
    19:00 +8°C° 0 mm 2 mps 746 mmHg 62%
    20:00 +7°C° 0 mm 1 mps 745 mmHg 68%
    21:00 +7°C° 0 mm 1 mps 745 mmHg 69%
    22:00 +6°C° 0 mm 1 mps 745 mmHg 70%
    23:00 +6°C° 0 mm 1 mps 745 mmHg 71%

    9 April, Thursday

    Time Temperature Precipitation Wind Pressure Humidity
    00:00 +6°C° 0 mm 1 mps 745 mmHg 73%
    01:00 +5°C° 0 mm 1 mps 744 mmHg 75%
    02:00 +4°C° 0 mm 2 mps 744 mmHg 76%
    03:00 +4°C° 0 mm 2 mps 744 mmHg 78%
    04:00 +4°C° 0 mm 2 mps 743 mmHg 80%
    05:00 +4°C° 0 mm 2 mps 743 mmHg 82%
    06:00 +4°C° 0 mm 3 mps 742 mmHg 78%
    07:00 +5°C° 0 mm 4 mps 742 mmHg 74%
    08:00 +6°C° 0 mm 4 mps 741 mmHg 69%
    09:00 +8°C° 0 mm 4 mps 741 mmHg 64%
    10:00 +10°C° 0 mm 5 mps 740 mmHg 59%
    11:00 +12°C° 0 mm 5 mps 740 mmHg 53%
    12:00 +13°C° 0 mm 5 mps 739 mmHg 53%
    13:00 +13°C° 0 mm 6 mps 739 mmHg 52%
    14:00 +14°C° 0 mm 6 mps 738 mmHg 52%
    15:00 +13°C° 0.2 mm 5 mps 737 mmHg 60%
    16:00 +12°C° 0.2 mm 3 mps 737 mmHg 69%
    17:00 +12°C° 0.2 mm 2 mps 736 mmHg 77%
    18:00 +10°C° 1 mm 2 mps 736 mmHg 81%
    19:00 +10°C° 1 mm 3 mps 736 mmHg 85%
    20:00 +9°C° 1 mm 3 mps 735 mmHg 89%
    21:00 +9°C° 0.1 mm 3 mps 735 mmHg 89%
    22:00 +8°C° 0.1 mm 3 mps 735 mmHg 89%
    23:00 +8°C° 0.1 mm 3 mps 735 mmHg 89%

    10 April, Friday

    Time Temperature Precipitation Wind Pressure Humidity
    00:00 +7°C° 0 mm 3 mps 735 mmHg 90%
    01:00 +7°C° 0 mm 3 mps 735 mmHg 91%
    02:00 +5°C° 0 mm 3 mps 735 mmHg 93%
    03:00 +4°C° 0 mm 3 mps 735 mmHg 92%
    04:00 +4°C° 0 mm 3 mps 735 mmHg 91%
    05:00 +3°C° 0 mm 3 mps 735 mmHg 90%
    06:00 +3°C° 0.1 mm 4 mps 736 mmHg 87%
    07:00 +3°C° 0.1 mm 4 mps 736 mmHg 84%
    08:00 +3°C° 0.1 mm 4 mps 737 mmHg 81%
    09:00 +3°C° 0 mm 5 mps 737 mmHg 71%
    10:00 +5°C° 0 mm 5 mps 738 mmHg 61%
    11:00 +6°C° 0 mm 5 mps 738 mmHg 51%
    12:00 +7°C° 0 mm 5 mps 738 mmHg 48%
    13:00 +7°C° 0 mm 4 mps 738 mmHg 45%
    14:00 +8°C° 0 mm 4 mps 739 mmHg 42%
    15:00 +8°C° 0 mm 4 mps 739 mmHg 45%
    16:00 +7°C° 0 mm 4 mps 738 mmHg 47%
    17:00 +7°C° 0 mm 4 mps 738 mmHg 50%
    18:00 +7°C° 0.1 mm 3 mps 739 mmHg 56%
    19:00 +5°C° 0.1 mm 3 mps 739 mmHg 63%
    20:00 +4°C° 0.1 mm 3 mps 739 mmHg 70%
    21:00 +3°C° 0 mm 3 mps 739 mmHg 70%
    22:00 +2°C° 0 mm 3 mps 739 mmHg 71%
    23:00 +2°C° 0 mm 3 mps 739 mmHg 71%

    11 April, Saturday

    Time Temperature Precipitation Wind Pressure Humidity
    00:00 +1°C° 0 mm 3 mps 739 mmHg 71%
    01:00 +1°C° 0 mm 3 mps 739 mmHg 71%
    02:00 0°C° 0 mm 3 mps 739 mmHg 70%
    03:00 -1°C° 0 mm 3 mps 739 mmHg 73%
    04:00 -1°C° 0 mm 3 mps 739 mmHg 75%
    05:00 -2°C° 0 mm 3 mps 739 mmHg 77%
    06:00 -1°C° 0 mm 3 mps 739 mmHg 73%
    07:00 0°C° 0 mm 3 mps 740 mmHg 69%
    08:00 -1°C° 0 mm 4 mps 740 mmHg 64%
    09:00 0°C° 0 mm 4 mps 740 mmHg 60%
    10:00 +1°C° 0 mm 4 mps 740 mmHg 55%
    11:00 +3°C° 0 mm 4 mps 740 mmHg 51%
    12:00 +4°C° 0 mm 4 mps 741 mmHg 47%
    13:00 +4°C° 0 mm 4 mps 741 mmHg 43%
    14:00 +5°C° 0 mm 4 mps 741 mmHg 39%
    15:00 +5°C° 0 mm 4 mps 741 mmHg 39%
    16:00 +5°C° 0 mm 4 mps 741 mmHg 38%
    17:00 +5°C° 0 mm 4 mps 741 mmHg 37%
    18:00 +3°C° 0 mm 3 mps 741 mmHg 43%
    19:00 +2°C° 0 mm 3 mps 741 mmHg 49%
    20:00 +2°C° 0 mm 2 mps 742 mmHg 54%
    21:00 +1°C° 0 mm 3 mps 742 mmHg 62%
    22:00 0°C° 0 mm 3 mps 742 mmHg 71%
    23:00 0°C° 0 mm 3 mps 742 mmHg 79%
    Show more